Weather History for Hamadan, Iran

Change the Weather History Date:

Wednesday, February 13, 2013

  Actual Average Record
Temperature  
Mean Temperature 36 °F -  
Max Temperature 46 °F - - ()
Min Temperature 26 °F - - ()
Degree Days  
Heating Degree Days 29    
Moisture  
Dew Point 24 °F    
Average Humidity 62    
Maximum Humidity 93    
Minimum Humidity 37    
Precipitation  
Precipitation 0.00 in - - ()
Sea Level Pressure  
Sea Level Pressure 30.09 in    
Wind  
Wind Speed 6 mph ()    
Max Wind Speed 18 mph    
Max Gust Speed -    
Visibility 6.2 miles    
Events      
T = Trace of Precipitation, MM = Missing Value Source: Averaged Metar Reports

Daily Weather History Graph

Daily Weather History Graph

Search for Another Location

Airport:

Trip Planner

Search our weather history database for the weather conditions in past years. The results will help you decide how hot, cold, wet, or windy it might be!

Date:

Astronomy

Feb. 13, 2013 Rise Set
Actual Time 7:03 AM IRST 5:56 PM IRST
Civil Twilight 6:37 AM IRST 6:22 PM IRST
Nautical Twilight 6:08 AM IRST 6:52 PM IRST
Astronomical Twilight 5:38 AM IRST 7:21 PM IRST
Moon 8:30 AM IRST (2/13) 9:24 PM IRST (2/13)
Length of Visible Light 11h 44m
Length of Day
10h 52m
Waxing Crescent, 11% of the Moon is Illuminated
Feb 13
Waxing Crescent
Feb 18
First Quarter
Feb 25
Full
Mar 5
Last Quarter
Mar 11
New

Hourly Weather History & Observations

Time (IRST) Temp. Windchill Dew Point Humidity Pressure Visibility Wind Dir Wind Speed Gust Speed Precip Events Conditions
12:30 AM 35.6 °F 31.7 °F 28.4 °F 75% 30.01 in 6.2 mi NNE 4.6 mph - N/A   Partly Cloudy
1:30 AM 35.6 °F 29.9 °F 30.2 °F 81% 30.04 in 6.2 mi WNW 6.9 mph - N/A   Scattered Clouds
2:30 AM 33.8 °F 29.6 °F 30.2 °F 87% 30.04 in 6.2 mi NE 4.6 mph - N/A   Scattered Clouds
3:30 AM 32.0 °F 27.5 °F 30.2 °F 93% 30.04 in 6.2 mi ENE 4.6 mph - N/A   Scattered Clouds
4:30 AM 32.0 °F 27.5 °F 28.4 °F 87% 30.01 in 6.2 mi South 4.6 mph - N/A   Scattered Clouds
5:30 AM 32.0 °F 27.5 °F 26.6 °F 80% 30.04 in 6.2 mi NNE 4.6 mph - N/A   Scattered Clouds
6:30 AM 30.2 °F 25.4 °F 23.0 °F 75% 30.04 in 6.2 mi NW 4.6 mph - N/A   Scattered Clouds
7:30 AM 26.6 °F 19.1 °F 21.2 °F 80% 30.06 in 6.2 mi ENE 6.9 mph - N/A   Partly Cloudy
8:30 AM 32.0 °F 27.5 °F 24.8 °F 75% 30.09 in 6.2 mi ESE 4.6 mph - N/A   Partly Cloudy
9:30 AM 39.2 °F - 24.8 °F 56% 30.09 in 6.2 mi Calm Calm - N/A   Partly Cloudy
10:30 AM 41.0 °F 38.0 °F 23.0 °F 49% 30.09 in 6.2 mi NNW 4.6 mph - N/A   Partly Cloudy
11:30 AM 42.8 °F 38.6 °F 21.2 °F 42% 30.09 in 6.2 mi NW 6.9 mph - N/A   Scattered Clouds
12:30 PM 44.6 °F 37.4 °F 19.4 °F 37% 30.06 in 6.2 mi West 16.1 mph - N/A   Scattered Clouds
1:30 PM 46.4 °F 39.2 °F 21.2 °F 37% 30.06 in 6.2 mi WNW 18.4 mph - N/A   Mostly Cloudy
2:30 PM 42.8 °F 36.6 °F 21.2 °F 42% 30.06 in 6.2 mi West 11.5 mph - N/A   Mostly Cloudy
3:30 PM 44.6 °F 37.4 °F 23.0 °F 43% 30.09 in 6.2 mi West 16.1 mph - N/A   Mostly Cloudy
4:30 PM 44.6 °F 37.4 °F 21.2 °F 39% 30.09 in 6.2 mi NW 16.1 mph - N/A   Mostly Cloudy
5:30 PM 42.8 °F 36.6 °F 23.0 °F 46% 30.09 in 6.2 mi WNW 11.5 mph - N/A   Scattered Clouds
6:30 PM 39.2 °F 34.2 °F 23.0 °F 52% 30.12 in 6.2 mi WNW 6.9 mph - N/A   Partly Cloudy
7:30 PM 35.6 °F 31.7 °F 21.2 °F 56% 30.15 in 6.2 mi West 4.6 mph - N/A   Scattered Clouds
8:30 PM 32.0 °F 25.6 °F 21.2 °F 64% 30.15 in 6.2 mi West 6.9 mph - N/A   Scattered Clouds
9:30 PM 32.0 °F - 21.2 °F 64% 30.18 in 6.2 mi Calm Calm - N/A   Partly Cloudy
10:30 PM 32.0 °F 24.2 °F 21.2 °F 64% 30.21 in 6.2 mi West 9.2 mph - N/A   Partly Cloudy
11:30 PM 30.2 °F 25.4 °F 23.0 °F 75% 30.21 in 6.2 mi West 4.6 mph - N/A   Partly Cloudy